Satellite: CASTOR
Catalog number: 35694
Epoch time:      10230.44082147
Element set:     655
Inclination:      051.5930 deg
RA of node:       222.0149 deg
Eccentricity:    0.0004218
Arg of perigee:   308.0851 deg
Mean anomaly:     053.0105 deg
Mean motion:   16.48877011 rev/day
Decay rate:   7.179566e-02 rev/day^2
Epoch rev:            6110
Checksum:              273

Satellite: METEOR-M
Catalog number: 35865
Epoch time:      10308.59602498
Element set:     804
Inclination:      098.7405 deg
RA of node:       001.2630 deg
Eccentricity:    0.0002336
Arg of perigee:   341.0760 deg
Mean anomaly:     019.0304 deg
Mean motion:   14.21832629 rev/day
Decay rate:       1.76e-06 rev/day^2
Epoch rev:            5867
Checksum:              279

Satellite: RS-38
Catalog number: 35869
Epoch time:      10308.62245197
Element set:     817
Inclination:      098.7403 deg
RA of node:       001.3300 deg
Eccentricity:    0.0004213
Arg of perigee:   329.9413 deg
Mean anomaly:     030.1492 deg
Mean motion:   14.21992457 rev/day
Decay rate:       1.77e-06 rev/day^2
Epoch rev:            5868
Checksum:              300

/EX


_______________________________________________
Via the Keps mailing list courtesy of AMSAT-NA
http://amsat.org/mailman/listinfo/keps

--- ViaMAIL!/WC v1.60d
 * Origin: Chowdanet (401-724-4410) telnet://chowdanet.com  (1:323/120)